Location: Gradaro
(45.0833°N, 10.8833°E)
Time: 20:48:45
(UTC+00:00)

FENGYUN 1C DEB - Pass Details

Date: 27 June 2021
Orbit: 744 x 851 km, 99.4° (Epoch: 27 July)

Event Time Altitude Azimuth Distance (km) Brightness Sun altitude
Exits shadow 22:43:54 19° 110° (ESE) 1,865 ? -21.2°
Maximum altitude 22:46:44 30° 64° (ENE) 1,412 ? -21.2°
Drops below altitude 10° 22:51:16 10° 4° (N) 2,378 ? -21.3°
Sets 22:53:48 0° 354° (N) 3,295 ? -21.4°
